Temperature
14 13 14 14 15 15 14 14 14 14 13 12 12 11 11 10 10 10 9 9 9 8 8 8 8 8 7 7 7 7 6 6 6 5 5 6 7 8 8 8 8 8 8
13 13 13 14 14 14 14 14 14 13 13 12 12 11 11 10 10 9 9 9 9 9 8 8 8 8 7 7 7 7 6 6 6 5 4 4 5 6 6 7 7 7 7
13 13 13 13 14 14 14 14 13 13 13 12 12 11 10 10 9 9 9 9 9 9 8 8 8 8 7 7 7 6 6 6 5 5 4 4 4 4 5 6 6 6 6
13 13 13 13 13 13 13 13 13 13 12 12 12 11 10 10 9 9 9 8 8 8 8 8 7 7 7 7 6 6 6 5 5 5 5 4 3 3 3 4 4 5 5
13 12 13 13 13 13 13 13 13 12 12 12 11 11 10 10 9 9 8 8 8 7 7 7 7 7 7 6 6 6 6 5 5 5 5 4 4 3 2 2 3 4 4
13 12 12 13 13 13 12 12 12 12 12 11 11 10 10 9 9 8 8 8 7 7 7 7 6 6 6 6 6 6 5 5 5 5 4 4 3 4 3 2 2 2 3
13 12 12 12 12 12 12 12 12 11 11 11 10 10 9 9 8 8 7 7 7 6 6 6 6 6 6 6 5 5 5 5 5 4 4 4 3 3 2 2 2 2 2
13 12 12 12 12 12 11 11 11 11 11 10 10 9 9 8 8 7 7 7 6 6 6 6 6 6 5 5 5 5 5 4 4 4 3 3 3 3 2 2 1 1 1
13 12 12 11 11 11 11 11 11 10 10 10 9 9 8 8 7 7 7 6 6 6 5 5 5 5 5 5 4 4 4 3 3 3 2 2 2 2 1 1 1 0 0
13 12 12 11 11 11 11 10 10 10 9 9 9 8 8 7 7 6 6 6 5 5 5 5 5 4 4 4 4 3 3 2 2 2 2 2 1 1 1 1 0 0 -0
14 13 12 11 10 10 10 10 9 9 9 8 8 7 7 7 6 6 5 5 5 5 5 4 4 4 4 4 3 3 2 2 2 1 1 1 0 0 0 -0 -0 -1 -1
14 13 11 11 10 9 9 9 9 8 8 8 7 7 6 6 6 5 5 5 4 4 4 4 4 3 3 3 3 2 2 1 1 1 0 -0 -1 -1 -1 -1 -2 -2 -2
13 12 11 10 9 9 9 8 8 8 7 7 7 6 6 5 5 5 4 4 4 4 4 3 3 3 3 2 2 1 1 0 -0 -0 -1 -1 -2 -2 -2 -2 -3 -3 -3
12 11 10 10 9 9 8 8 7 7 7 6 6 6 5 5 5 4 4 4 4 3 3 3 2 2 2 1 1 0 -0 -1 -1 -1 -2 -2 -3 -3 -3 -4 -4 -4 -4
11 10 10 9 8 8 7 7 7 7 6 6 6 5 5 5 4 4 4 3 3 3 2 2 2 1 1 0 -0 -1 -1 -2 -2 -2 -3 -3 -4 -4 -4 -4 -4 -4 -4
10 10 9 8 8 7 7 7 6 6 6 5 5 5 4 4 4 3 3 3 2 2 2 1 1 0 0 -0 -1 -2 -2 -3 -3 -3 -4 -4 -4 -4 -4 -4 -4 -4 -4
9 9 8 8 7 7 7 6 6 5 5 5 5 4 4 3 3 3 2 2 2 1 1 0 -0 -0 -0 -1 -2 -2 -3 -3 -4 -4 -4 -5 -5 -5 -5 -5 -4 -4 -4
9 8 7 7 7 6 6 6 5 5 5 4 4 3 3 3 2 2 2 1 1 0 0 -0 -1 -1 -1 -2 -3 -3 -4 -4 -4 -5 -5 -5 -5 -5 -5 -5 -4 -4 -4
8 7 7 7 6 6 5 5 5 4 4 4 3 3 2 2 2 1 1 1 0 -0 -1 -1 -1 -2 -2 -3 -4 -4 -4 -5 -5 -5 -5 -5 -5 -5 -5 -5 -4 -4 -4
7 7 6 6 6 5 5 4 4 4 3 3 3 2 2 2 1 1 0 -0 -0 -1 -1 -2 -2 -3 -3 -4 -4 -5 -5 -5 -5 -5 -5 -5 -5 -5 -5 -5 -5 -4 -4
7 6 6 5 5 4 4 4 4 3 3 2 2 2 2 1 1 0 -0 -1 -1 -2 -2 -2 -3 -3 -4 -4 -5 -5 -5 -5 -5 -5 -5 -5 -6 -5 -5 -5 -5 -4 -4
6 5 5 5 4 4 4 3 3 3 2 2 2 1 1 0 -0 -1 -1 -1 -2 -2 -3 -3 -3 -4 -4 -5 -6 -6 -6 -6 -6 -6 -6 -6 -6 -5 -5 -5 -5 -5 -5
5 5 4 4 4 4 3 3 2 2 2 1 1 1 0 -0 -1 -1 -2 -2 -2 -3 -3 -4 -4 -5 -5 -6 -6 -6 -6 -6 -6 -6 -6 -6 -6 -6 -6 -5 -5 -5 -5
4 4 4 4 3 3 3 2 2 1 1 0 0 -0 -1 -1 -1 -2 -2 -3 -3 -4 -4 -5 -5 -5 -6 -6 -6 -6 -6 -6 -6 -6 -6 -6 -6 -6 -6 -6 -6 -6 -6
4 3 3 3 3 2 2 2 1 1 0 -0 -1 -1 -1 -2 -2 -2 -3 -3 -4 -4 -5 -5 -6 -6 -6 -6 -6 -6 -6 -6 -6 -6 -6 -6 -6 -6 -6 -6 -6 -6 -6
3 3 3 2 2 2 1 1 1 -0 -1 -1 -1 -1 -2 -2 -3 -3 -3 -4 -4 -5 -5 -6 -6 -6 -6 -6 -7 -7 -7 -7 -7 -7 -7 -7 -7 -7 -7 -7 -7 -7 -7
Wind_Speed
8 8 9 9 9 9 9 8 7 6 5 4 3 3 2 1 1 1 2 4 5 6 6 4 4 4 4 5 5 5 6 5 4 5 7 8 10 13 13 11 11 13 19
9 8 9 8 8 9 8 8 8 7 6 4 3 3 2 2 1 1 1 3 4 5 5 5 3 4 4 6 6 5 5 5 4 3 4 5 5 6 10 9 10 11 11
11 9 9 9 8 8 8 8 8 8 7 5 4 3 2 1 1 0 0 2 3 4 4 5 4 4 4 5 6 6 7 6 5 5 5 5 5 5 5 7 7 7 6
11 10 10 9 8 7 7 8 8 8 6 5 4 3 2 1 1 1 1 1 2 2 3 3 4 4 4 5 6 6 6 6 6 5 6 8 7 6 6 4 5 7 8
11 10 10 9 8 7 7 7 8 7 6 5 5 4 3 2 2 2 2 2 1 1 1 2 3 3 4 5 6 6 6 6 7 6 6 7 7 9 10 12 7 7 8
11 10 9 9 8 6 6 7 8 7 6 5 5 5 4 3 3 3 3 2 2 1 1 2 3 4 4 5 6 6 7 7 8 7 7 7 7 7 9 12 11 11 8
12 11 10 9 9 8 6 6 7 6 5 5 4 4 3 2 2 2 2 3 2 2 2 2 3 4 5 6 6 7 8 8 9 9 8 8 9 8 9 13 15 14 10
12 11 11 10 9 9 7 6 7 6 5 4 3 3 3 2 1 2 2 3 2 3 3 4 5 6 7 7 6 6 8 8 9 10 10 9 9 9 9 10 12 17 14
13 12 11 10 10 9 7 6 6 6 4 3 3 2 2 2 2 2 3 3 3 3 4 5 6 6 7 7 7 7 8 8 9 9 10 10 9 8 9 9 9 13 20
13 12 11 10 9 8 7 6 6 5 4 3 2 1 1 1 2 3 4 4 5 4 6 7 7 7 7 7 8 8 8 9 9 8 10 10 9 8 8 9 9 10 15
13 12 10 10 9 8 7 6 5 5 3 2 1 1 1 2 3 4 5 5 5 6 7 7 8 8 9 9 8 9 9 10 10 9 10 11 10 8 8 8 9 9 10
11 11 10 10 9 8 7 6 5 4 3 2 1 2 2 3 4 5 6 6 6 7 7 8 9 9 9 9 9 10 10 10 11 10 10 11 11 11 10 9 10 10 10
11 10 9 9 8 7 6 6 5 4 3 1 1 3 3 4 5 5 6 6 7 8 8 9 9 10 10 10 10 10 10 10 11 10 11 12 12 14 12 12 12 11 13
10 9 9 8 8 7 6 5 4 3 2 0 2 3 4 4 5 6 7 7 8 9 9 9 10 10 11 11 11 11 11 11 11 12 12 13 14 15 15 15 14 13 13
9 9 8 7 7 6 5 5 3 2 1 1 3 4 4 5 6 6 7 8 9 10 10 11 11 11 10 10 11 10 11 11 12 12 12 14 19 23 20 17 13 12 13
10 9 8 8 7 6 5 4 2 2 1 3 4 5 5 6 6 7 8 9 9 10 10 11 11 11 11 20 24 19 12 10 11 12 12 14 18 22 27 29 27 23 16
10 9 8 7 6 6 4 3 1 1 2 4 5 6 6 6 7 8 9 9 10 10 11 10 11 11 13 23 26 26 17 12 11 12 12 14 15 21 14 20 26 25 28
9 8 7 7 5 4 3 2 1 2 4 5 6 6 6 7 8 8 9 10 9 10 10 11 11 11 14 25 27 27 17 11 12 12 13 15 14 15 17 14 14 15 16
9 8 7 6 5 3 3 1 2 4 5 6 6 6 6 7 8 9 10 10 9 10 10 10 11 12 14 23 26 26 12 11 12 13 13 15 14 23 28 20 16 16 14
8 7 5 4 3 2 2 1 4 5 6 7 6 6 7 8 9 10 10 9 9 11 11 11 10 12 12 21 26 26 11 11 12 11 12 20 22 27 29 18 15 17 16
8 6 5 3 2 1 1 3 5 6 7 7 7 7 8 9 10 10 9 10 10 11 10 11 10 11 14 20 24 25 13 11 12 12 11 11 25 29 29 26 17 21 21
6 5 3 2 1 1 2 5 7 7 7 7 8 8 9 9 9 10 10 10 10 10 11 11 12 9 11 17 21 26 25 23 15 13 11 14 27 30 30 24 23 28 24
5 3 2 2 2 3 4 6 7 7 7 8 9 9 9 9 9 9 10 9 9 9 10 10 12 12 9 12 24 26 28 28 19 15 24 28 31 29 21 23 27 22 11
3 2 1 3 4 5 5 6 7 7 8 9 9 9 9 9 9 8 8 8 8 9 10 11 13 13 11 9 9 11 15 20 18 16 20 27 26 21 21 19 14 9 8
2 2 2 4 6 6 7 7 7 7 8 9 9 9 9 9 9 9 8 10 9 11 13 12 11 14 15 16 25 21 15 13 15 18 13 11 10 9 9 8 8 7 7
1 2 4 5 6 7 8 8 8 8 9 9 9 8 8 8 8 10 11 14 16 23 24 24 23 19 23 30 30 30 29 29 28 21 12 11 10 10 9 9 9 8 8
Wind_Direction
111 103 98 92 87 88 97 104 109 110 108 105 113 120 140 157 155 182 228 244 242 245 245 247 254 257 255 253 251 253 262 267 270 284 289 275 259 256 256 253 251 249 248
123 114 104 98 96 96 99 103 104 102 97 100 102 104 107 105 105 144 212 248 250 246 239 235 236 242 253 262 258 253 261 266 252 253 298 304 301 268 257 251 245 245 243
137 127 111 100 94 93 98 101 99 96 95 98 94 83 72 55 77 265 238 252 252 253 246 243 244 246 242 251 253 246 247 257 252 219 224 263 275 312 294 291 284 268 254
135 131 123 113 106 102 100 101 101 99 99 99 96 104 104 100 126 129 186 247 225 231 248 253 257 256 253 256 255 248 243 245 256 250 231 235 239 271 293 274 282 296 287
139 134 128 125 117 112 110 111 106 103 100 97 96 86 68 48 41 28 23 349 314 206 247 261 269 267 259 260 261 263 255 244 245 245 245 252 253 247 263 279 269 262 258
142 136 131 127 123 122 119 119 113 110 104 98 94 87 72 40 28 16 9 344 329 318 297 276 275 273 267 265 263 260 259 254 253 251 245 244 246 249 254 270 276 275 266
150 149 150 146 143 142 138 129 121 115 105 94 87 91 84 50 37 19 355 337 329 325 318 323 288 277 268 266 261 261 259 256 255 254 254 251 250 249 255 267 277 280 277
161 160 160 154 150 150 147 134 124 115 104 96 84 83 84 65 28 6 334 315 304 297 301 300 286 282 280 275 266 264 259 258 254 257 256 256 255 253 252 259 274 283 283
164 162 159 155 153 153 149 138 129 119 110 100 82 58 50 41 357 327 312 298 290 288 291 290 284 282 280 276 274 267 264 262 259 258 258 259 258 255 255 255 255 271 284
163 161 160 156 152 148 141 131 127 126 120 104 92 69 357 349 325 307 296 292 293 294 294 289 287 286 283 280 280 277 273 271 268 264 265 266 266 262 257 256 259 256 269
166 162 157 152 146 145 147 143 135 124 114 96 71 3 325 324 314 300 294 295 295 296 295 293 292 289 287 286 285 283 285 284 284 283 281 278 276 275 271 269 267 264 264
158 153 150 147 147 151 149 144 137 125 119 99 16 317 310 305 299 295 298 303 303 301 297 294 291 289 289 289 288 289 289 287 288 289 291 292 294 289 285 280 276 274 270
143 143 145 147 149 148 146 143 134 126 117 93 320 308 306 306 302 302 307 309 303 298 295 294 292 290 289 287 283 281 281 279 280 283 285 287 289 287 284 281 279 277 278
143 145 147 147 144 143 141 133 125 123 124 235 285 293 295 299 301 303 302 298 294 293 292 289 286 284 283 282 281 279 276 275 274 274 274 277 277 278 277 278 274 273 273
145 147 147 141 137 134 129 124 126 137 159 267 279 277 282 290 293 293 293 291 290 288 285 284 283 281 282 282 280 277 272 271 272 272 272 274 279 280 281 280 275 269 269
150 145 139 135 137 135 133 134 161 185 208 265 273 276 281 283 284 286 288 288 287 285 283 282 281 282 286 293 297 298 288 279 279 283 281 282 285 285 286 286 287 285 281
145 142 137 134 131 129 131 154 187 228 260 266 271 273 275 279 281 283 287 286 285 284 284 283 283 283 287 297 301 301 300 289 286 286 287 289 288 291 283 284 286 285 283
138 135 131 126 123 124 139 158 220 264 267 270 273 273 275 278 280 282 282 282 282 284 285 287 286 287 292 301 302 303 300 289 285 283 283 284 283 282 285 279 274 270 270
121 120 121 125 131 146 160 178 260 271 273 275 276 278 280 282 283 282 282 283 286 288 286 286 288 289 294 301 304 303 294 289 286 283 283 286 286 288 293 291 284 282 277
105 110 113 120 140 164 155 226 268 277 278 278 280 284 284 283 283 281 283 285 286 286 287 287 286 288 292 300 305 304 296 292 290 286 282 288 291 293 294 291 286 286 285
114 118 126 142 171 174 196 258 270 273 275 280 284 285 282 280 280 281 282 285 286 287 287 289 289 289 293 302 304 304 302 294 294 294 293 288 294 296 296 294 289 286 288
129 134 142 177 212 237 253 265 269 272 280 286 285 283 281 282 286 284 284 284 286 290 291 293 294 288 290 297 300 302 302 303 300 298 295 292 296 297 298 297 293 294 297
143 145 163 227 262 265 260 266 271 279 284 285 283 282 283 281 281 282 286 288 287 288 291 292 294 295 289 292 299 301 302 301 300 295 297 299 300 301 300 295 295 297 294
148 154 197 259 271 275 273 270 278 283 284 283 284 284 285 285 284 283 282 285 286 287 290 292 295 297 295 290 289 288 295 297 297 294 294 297 297 296 293 294 294 287 279
154 178 235 262 272 281 283 283 284 287 285 282 282 283 283 285 287 283 279 285 278 283 293 292 292 296 299 296 302 304 302 300 296 302 298 295 293 291 288 287 287 285 284
180 239 260 270 279 285 285 285 284 284 283 285 284 284 284 285 285 290 292 285 285 294 295 295 295 296 297 302 306 307 307 307 307 307 301 299 297 296 296 297 296 292 288
Height
1517 1517 1516 1516 1517 1518 1519 1520 1522 1524 1526 1527 1529 1530 1532 1532 1533 1533 1534 1534 1534 1534 1534 1534 1534 1533 1533 1532 1532 1531 1530 1528 1527 1524 1520 1516 1514 1512 1511 1509 1508 1507 1506
1517 1517 1517 1517 1518 1518 1520 1521 1523 1524 1526 1527 1528 1530 1530 1531 1531 1532 1531 1531 1531 1531 1530 1530 1529 1529 1528 1528 1527 1526 1525 1523 1523 1521 1517 1510 1506 1504 1504 1503 1502 1501 1500
1515 1517 1517 1518 1519 1519 1521 1522 1523 1525 1526 1527 1528 1529 1529 1530 1530 1530 1529 1529 1529 1528 1527 1527 1526 1525 1525 1524 1523 1522 1520 1519 1518 1517 1516 1511 1502 1499 1496 1497 1497 1496 1495
1514 1516 1516 1518 1519 1520 1521 1523 1524 1525 1526 1527 1528 1528 1529 1529 1529 1528 1528 1527 1526 1526 1525 1524 1523 1522 1521 1520 1519 1518 1516 1515 1513 1512 1510 1508 1504 1499 1489 1487 1488 1489 1488
1512 1514 1516 1517 1519 1520 1521 1523 1524 1525 1526 1527 1527 1527 1528 1528 1527 1527 1526 1525 1524 1523 1522 1521 1520 1519 1517 1516 1515 1513 1512 1510 1508 1506 1504 1502 1499 1496 1490 1480 1478 1478 1478
1511 1513 1515 1516 1518 1520 1521 1522 1524 1524 1525 1526 1526 1526 1526 1526 1525 1524 1523 1523 1522 1520 1519 1518 1517 1515 1514 1512 1510 1509 1507 1505 1502 1500 1498 1496 1493 1489 1485 1477 1471 1468 1467
1508 1511 1513 1515 1517 1519 1520 1522 1523 1523 1524 1525 1525 1524 1524 1523 1522 1522 1521 1520 1518 1517 1516 1515 1513 1511 1509 1507 1505 1503 1501 1499 1496 1494 1491 1488 1486 1483 1480 1474 1465 1460 1457
1506 1508 1511 1513 1515 1517 1519 1520 1521 1522 1522 1523 1523 1522 1522 1521 1520 1519 1518 1516 1515 1514 1512 1510 1508 1506 1504 1502 1499 1496 1494 1491 1489 1486 1483 1480 1478 1476 1473 1469 1463 1454 1447
1503 1506 1509 1511 1513 1515 1517 1518 1519 1520 1520 1520 1520 1520 1519 1518 1517 1516 1514 1513 1511 1510 1508 1506 1503 1501 1498 1496 1493 1489 1487 1484 1481 1478 1475 1472 1469 1467 1464 1462 1459 1453 1441
1499 1503 1506 1509 1511 1513 1515 1516 1517 1518 1518 1518 1517 1517 1516 1515 1514 1512 1511 1509 1507 1505 1503 1500 1498 1495 1492 1489 1486 1482 1479 1476 1473 1470 1467 1463 1460 1457 1455 1452 1450 1446 1439
1496 1500 1503 1506 1508 1511 1512 1514 1515 1515 1515 1515 1514 1514 1513 1511 1510 1508 1507 1505 1502 1500 1497 1494 1491 1488 1485 1482 1478 1474 1471 1468 1464 1461 1458 1454 1451 1448 1445 1442 1439 1436 1432
1492 1496 1500 1503 1506 1508 1510 1511 1511 1512 1512 1512 1511 1510 1509 1508 1506 1504 1502 1500 1497 1495 1492 1488 1485 1481 1478 1474 1470 1466 1463 1459 1455 1451 1448 1444 1441 1437 1434 1431 1428 1425 1423
1489 1493 1497 1500 1503 1505 1507 1508 1508 1509 1509 1508 1508 1507 1505 1504 1502 1500 1497 1495 1492 1488 1485 1482 1478 1474 1470 1466 1462 1458 1454 1450 1446 1442 1438 1434 1430 1426 1423 1420 1417 1414 1412
1487 1491 1494 1497 1500 1502 1504 1505 1505 1505 1505 1505 1504 1502 1501 1499 1497 1494 1492 1489 1485 1482 1478 1474 1470 1466 1462 1458 1454 1449 1445 1440 1436 1433 1428 1424 1421 1416 1413 1410 1406 1404 1401
1485 1488 1492 1495 1497 1499 1501 1502 1502 1502 1502 1501 1500 1498 1496 1494 1492 1489 1486 1482 1479 1475 1471 1467 1463 1459 1455 1451 1446 1441 1436 1431 1426 1422 1419 1415 1412 1408 1405 1402 1398 1395 1392
1482 1486 1490 1492 1494 1496 1498 1499 1499 1498 1498 1496 1495 1493 1491 1489 1486 1483 1480 1476 1472 1468 1464 1460 1455 1451 1447 1443 1439 1434 1428 1423 1418 1413 1409 1406 1402 1399 1395 1393 1390 1388 1384
1480 1484 1487 1490 1492 1493 1494 1495 1495 1495 1493 1492 1490 1488 1486 1483 1481 1477 1473 1469 1465 1461 1457 1453 1448 1444 1439 1436 1431 1426 1421 1415 1410 1405 1400 1396 1393 1390 1386 1382 1380 1377 1375
1479 1482 1485 1487 1489 1490 1491 1491 1491 1490 1489 1487 1485 1483 1481 1478 1475 1471 1467 1463 1458 1454 1450 1445 1441 1436 1431 1427 1422 1417 1412 1406 1402 1398 1393 1389 1384 1382 1378 1373 1369 1366 1364
1478 1481 1483 1485 1486 1487 1487 1487 1487 1486 1485 1483 1481 1478 1476 1472 1468 1464 1460 1456 1451 1447 1442 1438 1433 1428 1422 1419 1414 1409 1403 1397 1393 1389 1385 1382 1377 1373 1370 1366 1360 1356 1353
1476 1479 1481 1482 1483 1484 1484 1484 1483 1482 1480 1478 1476 1473 1470 1466 1462 1458 1454 1449 1445 1439 1435 1429 1425 1420 1415 1410 1406 1402 1396 1389 1384 1380 1376 1373 1370 1365 1362 1358 1352 1347 1344
1475 1477 1479 1480 1480 1480 1480 1479 1478 1477 1475 1473 1470 1467 1464 1460 1456 1451 1447 1443 1437 1432 1427 1421 1417 1412 1407 1402 1398 1394 1390 1383 1377 1372 1367 1364 1361 1357 1353 1349 1344 1340 1336
1473 1475 1476 1477 1477 1477 1476 1475 1474 1472 1470 1467 1464 1461 1457 1453 1449 1445 1440 1435 1430 1424 1419 1413 1407 1403 1399 1395 1390 1386 1382 1378 1371 1364 1360 1355 1351 1347 1344 1340 1335 1332 1328
1471 1472 1473 1474 1474 1473 1472 1471 1469 1467 1464 1461 1457 1454 1450 1446 1442 1438 1432 1428 1423 1417 1411 1405 1399 1393 1389 1386 1382 1378 1373 1369 1364 1357 1352 1347 1343 1338 1334 1330 1326 1323 1319
1469 1470 1470 1470 1470 1469 1468 1466 1464 1461 1458 1454 1450 1447 1442 1438 1434 1430 1426 1421 1416 1410 1404 1398 1392 1386 1380 1377 1373 1368 1363 1359 1354 1348 1342 1338 1333 1329 1325 1321 1318 1315 1312
1466 1467 1467 1466 1466 1465 1463 1461 1458 1455 1451 1447 1443 1439 1435 1431 1426 1422 1418 1413 1409 1405 1399 1392 1386 1380 1373 1369 1367 1362 1356 1351 1346 1340 1334 1329 1325 1320 1317 1314 1311 1308 1305
1463 1464 1463 1462 1461 1459 1457 1455 1452 1449 1444 1440 1436 1432 1427 1423 1418 1413 1408 1404 1401 1396 1391 1386 1381 1374 1369 1363 1358 1354 1349 1343 1339 1333 1327 1322 1318 1315 1311 1307 1304 1301 1298